COSMOS 1395

Satellite information

Favourite Embed

Satellite Type and Status

PAYLOADIN ORBIT

Key statistics

Satellite COSMOS 1395 at a glance.

Uptime

15813

Days in orbit

Revolutions

≈ 12.4

Per day

Orbit

LEO

Low Earth Orbit

Inclination

74.0

Latest

Satellite identification and parameters

Extended collection of information and parameters for COSMOS 1395.

Object identification

Identified? True

Debris? False

Object name: COSMOS 1395

International designator: 1982-073H

Object number (NORAD): 13382

Object ID (CCSDS): 13382

Country: COMMONWEALTH OF INDEPENDENT STATES (CIS)

Current information (Y/N): Y

RCS size: MEDIUM

Orbital parameters

Period: 115.862 minutes

Inclination: 74.0139 deg

SMA: 7872.63 km

Apoapsis: 1516.012 km

Periapsis: 1472.977 km

RAAN: 175.6291 deg

Eccentricy: 0.0027332

Argument of periapsis: 232.7855 deg

Mean anomaly: 138.21 deg

Mean motion: 12.42862273 rev/day

Mean motion (dot): 0.00000018 rev/day2

B* drag term: 0.00024457 1/REarth

Two-line elements (TLE)

Creation date: Nov. 4, 2025, 11:56 p.m.

Reference frame: TEME

Reference center: EARTH

Epoch: Nov. 4, 2025, 9:02 p.m. UTC

TLE line 0: 0 COSMOS 1395

TLE line 1: 1 13382U 82073H 25308.87658896 .00000018 00000-0 24457-3 0 9996

TLE line 2: 2 13382 74.0139 175.6291 0027332 232.7855 138.2100 12.42862273964240

Live tracking on map

Real-time ground track for satellite COSMOS 1395.

In-orbit conjunctions

A list of the most updated potential collisions computed for object COSMOS 1395.

Target Orbit TCA Probability of collision Miss distance Type
COSMOS 643 LEO 2025-05-23 15:38:21 0.03883256 40.0 (m) PAYLOAD

Associated space launch

Military communications satellites

COSMOS 1395 was lifted into orbit during the mission ‘Kosmos-3M | Strela-1M 241-248’, on board a Kosmos-3M space rocket.

The launch took place on July 21, 1982, 6:31 a.m. from 132/2.

For more information about the launch, click the button.

Launch to space Kosmos-3M | Strela-1M 241-248
Kosmos-3M | Strela-1M 241-248

Agency: N/A

Status: Launch Successful

Launch date: July 21, 1982, 6:31 a.m. UTC

Rocket: Kosmos-3M

Launch pad: 132/2

Location: Plesetsk Cosmodrome, Russian Federation

...

Latest news about this satellite

There are no fresh news available about this satellite. Check back as we update our databases every day.


Newsletter sign-up

Weekly statistics, charts and insights to help you stay on top of the space industry.